Location: Unspecified
(0.0000°N, 0.0000°E)
Time: 15:36:53
(UTC+00:00)

Vanguard 3 - Pass Details

Date: 14 December 2017
Orbit: 508 x 3264 km, 33.3° (Epoch: 20 April)

Event Time Altitude Azimuth Distance (km) Brightness Sun altitude
Rises 04:17:10 0° 223° (SW) 7,235 11.8 -22.3°
Reaches altitude 10° 04:23:58 10° 211° (SSW) 6,148 11.5 -20.7°
Maximum altitude 04:37:54 24° 163° (SSE) 4,439 11.3 -17.6°
Drops below altitude 10° 04:48:30 10° 115° (ESE) 4,669 12.4 -15.2°
Sets 04:52:37 0° 101° (E) 5,243 13.0 -14.2°
